This demonstration page uses our WeatherBlox Daily Observations layout. Learn more.

Left ArrowRight Arrow

Hourly Observations for January 17, 2022

Temp ( °F °C ) Dew Point ( °F °C ) Humidity (%) Winds ( mph kmh ) Pressure ( in mb ) Visibility ( mi km ) Precip ( " mm )
12:53 am 00:53 Cloudy 36 2.2 30 -1.1 79 79 WNW 17 28 29.74 1007 10 16 0.00 0.00
1:53 am 01:53 Cloudy 35 1.7 30 -1.1 82 82 W 10 17 29.75 1008 10 16 0.00 0.00
2:53 am 02:53 Mostly Cloudy 34 1.1 26 -3.3 73 73 W 13 20 29.77 1008 10 16 0.00 0.00
3:53 am 03:53 Cloudy 34 1.1 26 -3.3 73 73 WSW 12 19 29.79 1009 10 16 0.00 0.00
4:53 am 04:53 Cloudy 34 1.1 27 -2.8 76 76 W 13 20 29.78 1009 10 16 0.00 0.00
5:53 am 05:53 Cloudy 34 1.1 26 -3.3 73 73 W 14 22 29.79 1009 10 16 0.00 0.00
6:53 am 06:53 Cloudy 35 1.7 26 -3.3 70 70 WNW 17 28 29.83 1010 10 16 0.00 0.00
7:53 am 07:53 Cloudy 34 1.1 26 -3.3 73 73 W 10 17 29.84 1011 10 16 0.00 0.00
8:53 am 08:53 Cloudy 35 1.7 27 -2.8 72 72 W 18 30 29.85 1011 10 16 0.00 0.00
9:53 am 09:53 Cloudy 35 1.7 28 -2.2 76 76 W 9 15 29.89 1012 10 16 0.00 0.00
10:53 am 10:53 Cloudy 35 1.7 29 -1.7 78 78 WNW 13 20 29.91 1013 10 16 0.00 0.00
11:53 am 11:53 Cloudy 36 2.2 29 -1.7 76 76 WNW 16 26 29.93 1013 10 16 0.00 0.00
12:53 pm 12:53 Cloudy 36 2.2 28 -2.2 73 73 WNW 12 19 29.92 1013 10 16 0.00 0.00
1:53 pm 13:53 Cloudy 36 2.2 29 -1.7 76 76 WNW 15 24 29.93 1014 10 16 0.00 0.00
2:53 pm 14:53 Cloudy 36 2.2 28 -2.2 73 73 WNW 13 20 29.95 1014 10 16 0.00 0.00
3:53 pm 15:53 Cloudy 37 2.8 29 -1.7 73 73 WNW 10 17 29.97 1015 10 16 0.00 0.00
4:53 pm 16:53 Cloudy 37 2.8 27 -2.8 67 67 WNW 12 19 29.99 1016 10 16 0.00 0.00
5:53 pm 17:53 Cloudy 36 2.2 27 -2.8 70 70 WNW 10 17 30.00 1016 10 16 0.00 0.00
6:53 pm 18:53 Cloudy 36 2.2 27 -2.8 70 70 WNW 17 28 30.03 1017 10 16 0.00 0.00
7:53 pm 19:53 Cloudy 36 2.2 27 -2.8 70 70 WNW 13 20 30.06 1018 10 16 0.00 0.00
8:53 pm 20:53 Cloudy 36 2.2 27 -2.8 70 70 W 9 15 30.08 1019 10 16 0.00 0.00
9:53 pm 21:53 Cloudy 36 2.2 28 -2.2 73 73 WNW 8 13 30.10 1019 10 16 0.00 0.00
10:53 pm 22:53 Cloudy 36 2.2 27 -2.8 70 70 WNW 9 15 30.10 1019 10 16 0.00 0.00
11:53 pm 23:53 Cloudy 36 2.2 27 -2.8 70 70 NW 9 15 30.11 1020 10 16 0.00 0.00

Powered by AerisWeather